[[{"header":{"parameterUnit":"m.s-1","parameterCategory":1,"la1":30.2991,"la2":30.254,"lo1":-89.0895,"lo2":-89.0444,"dy":0.0017,"dx":0.0017,"nx":28,"ny":28,"refTime":"2023-04-16T21:00:00:Z","depth":0,"parameterNumber":2,"parameterNumberName":"U-component_of_WINDS"},"data":[0,0,0,0,0,0,0,0,0,0,0,0,0,0,0,0,0,0,0,0,0,0,0,0,0,0,0,0,0,0,0,0,0,0,0,0,0,0,0,0,0,0,0,0,0,0,0,0,0,0,0,0,0,0,0,0,0,0,3.5843,3.5844,0,3.5904,3.5905,3.5906,3.5899,3.5898,3.5897,3.5896,3.5958,3.596,3.5963,0,0,0,0,0,0,0,0,0,0,0,0,0,3.5721,3.5723,3.5843,3.5844,3.5845,3.5904,3.5905,3.5906,3.5899,3.5898,3.5897,3.5896,3.5957,3.596,3.5963,0,0,0,0,0,0,0,0,0,0,0,0,0,3.5777,3.5724,3.5843,3.5848,3.585,3.5904,3.5905,3.5906,3.5899,3.5898,3.5896,3.5895,3.5956,3.596,3.5963,3.6016,0,0,3.5975,3.5977,0,0,0,0,0,0,0,0,3.5774,3.5782,3.5847,3.5848,3.5849,3.5893,3.5885,3.5943,3.59,3.588,3.5896,3.5894,3.5937,3.5942,3.5957,3.6019,3.6022,3.5975,3.5978,3.5979,3.598,0,0,0,0,0,0,0,3.577,3.5779,3.5867,3.5848,3.5849,3.5848,3.5854,3.5896,3.5916,3.5882,3.5882,3.5889,3.5938,3.5953,3.5959,3.6023,3.5975,3.5979,3.5981,3.5983,3.6133,3.6135,0,0,0,0,0,0,3.5765,3.5776,3.5865,3.5869,3.5807,3.5851,3.5859,3.588,3.5916,3.592,3.589,3.5888,3.5948,3.5954,3.5961,3.6026,3.5979,3.5983,3.5985,3.6131,3.6134,3.6135,0,0,0,0,0,0,3.5762,3.5773,3.5863,3.5822,3.5834,3.5855,3.5879,3.5882,3.5898,3.5922,3.5926,3.5903,3.5947,3.5955,3.6003,3.6028,3.5985,3.5988,3.6129,3.6132,3.6134,3.6156,0,0,0,0,0,0,3.5759,3.5772,3.5792,3.5823,3.5836,3.5904,3.5881,3.5884,3.5905,3.5903,3.5935,3.5938,3.5946,3.5997,3.6007,3.6032,3.5991,3.6127,3.6131,3.6134,3.6154,3.6159,3.6164,0,0,0,0,0,3.5754,3.5795,3.5793,3.5804,3.5861,3.5905,3.5913,3.5922,3.5907,3.5927,3.5943,3.5937,3.6024,3.6002,3.6013,3.604,3.6126,3.613,3.6133,3.6151,3.6158,3.6164,0,0,0,0,0,0,3.5765,3.5799,3.5797,3.5849,3.5875,3.5904,3.593,3.5929,3.5958,3.5956,3.5965,3.5972,3.602,3.6035,3.601,3.6094,3.6073,3.6079,3.6083,3.609,3.6095,3.609,3.5994,0,0,0,0,0,3.5774,3.5807,3.5835,3.5878,3.5891,3.5909,3.5928,3.5933,3.5959,3.597,3.5989,3.6015,3.6048,3.607,3.6101,3.6156,3.6163,3.618,3.6185,3.619,3.6195,3.6226,3.6234,3.6148,3.6148,3.6148,0,0,3.5792,3.5814,3.5834,3.5881,3.5901,3.5936,3.5918,3.5954,3.598,3.5975,3.6022,3.6037,3.6067,3.6119,3.6142,3.6132,3.6221,3.6195,3.6198,3.6201,3.6231,3.6239,3.6247,3.6151,3.615,3.615,0,0,3.5842,3.5862,3.5901,3.5922,3.5954,3.5966,3.5975,3.6006,3.6016,3.6063,3.6061,3.6092,3.6148,3.617,3.6188,3.625,3.6246,3.626,3.6288,3.6318,3.6325,3.6331,3.6354,3.6362,3.6265,3.6265,3.6265,0,3.586,3.5912,3.5921,3.5959,3.598,3.5978,3.6018,3.6038,3.6078,3.6093,3.6082,3.6154,3.6174,3.6231,3.6247,3.6261,3.6273,3.6256,3.6324,3.633,3.6336,3.6357,3.6366,3.6266,3.6266,3.6266,3.6266,0,3.5933,3.5969,3.5997,3.6037,3.6061,3.6099,3.6115,3.6138,3.6142,3.6155,3.6204,3.6228,3.6265,3.6279,3.6282,3.6338,3.6331,3.6322,3.63,3.6345,3.6366,3.6374,3.6269,3.6268,3.6268,3.6267,0,0,3.5991,3.6037,3.6047,3.6066,3.6101,3.6129,3.6169,3.6206,3.6226,3.6254,3.6288,3.6337,3.6329,3.635,3.6356,3.6383,3.6431,3.637,3.6371,3.6381,3.6495,3.6502,3.6512,3.6429,3.6431,3.6432,3.6493,0,3.6045,3.6114,3.6125,3.6186,3.622,3.6221,3.6255,3.6281,3.6295,3.6326,3.6341,3.6377,3.6363,3.6376,3.6402,3.6419,3.6454,3.6415,3.6461,3.6462,3.6453,3.6522,3.653,3.6586,3.6501,3.6502,3.6503,0,3.6117,3.6149,3.6214,3.6246,3.6261,3.6292,3.6328,3.6357,3.6387,3.6396,3.642,3.6423,3.6465,3.6442,3.65,3.6473,3.6493,3.6504,3.6507,3.6511,3.6485,3.6529,3.6604,3.6613,3.6516,3.6515,3.6514,0,3.6154,3.6212,3.6259,3.6275,3.6314,3.6336,3.6353,3.6382,3.6404,3.6436,3.645,3.6486,3.6506,3.6534,3.6547,3.6529,3.6604,3.6582,3.6612,3.6612,3.6628,3.6627,3.6707,3.664,3.664,3.664,3.664,0,3.6213,3.6253,3.6276,3.6305,3.635,3.6362,3.6407,3.6423,3.6449,3.6482,3.6484,3.6515,3.653,3.6563,3.6573,3.662,3.6628,3.6637,3.6639,3.6637,3.6636,3.6649,3.6646,3.6642,3.6642,3.6641,3.6641,0,3.6261,3.6278,3.633,3.6363,3.6372,3.6404,3.6433,3.6462,3.6476,3.6517,3.6528,3.655,3.659,3.6605,3.6653,3.666,3.6714,3.6713,3.6704,3.6705,3.6735,3.6732,3.6827,3.684,3.6764,3.6765,3.6765,0,3.6298,3.6329,3.6366,3.6389,3.6407,3.6443,3.6466,3.648,3.6504,3.6541,3.6566,3.6605,3.6637,3.67,3.6721,3.6758,3.6758,3.6789,3.6763,3.676,3.6759,3.6757,3.6761,3.6793,3.6794,3.6795,3.6795,0,3.6362,3.637,3.6403,3.6441,3.6469,3.6498,3.6527,3.6545,3.6564,3.6591,3.6632,3.6657,3.6706,3.6746,3.6784,3.6802,3.6802,3.6803,3.6812,3.681,3.6804,3.6808,3.6717,3.6801,3.68,3.68,3.6799,3.6799,3.6407,3.6435,3.6466,3.6504,3.6527,3.6555,3.6584,3.6602,3.6637,3.6678,3.6684,3.6728,3.6759,3.6811,3.6831,3.6865,3.6857,3.687,3.6874,3.6877,3.6879,3.6799,3.6872,3.6872,3.6872,3.6872,3.6872,0,3.6472,3.6492,3.6527,3.6568,3.6598,3.6596,3.6629,3.6654,3.6693,3.6721,3.6754,3.6801,3.684,3.6864,3.6903,3.6927,3.6928,3.6936,3.6935,3.6939,3.6884,3.6872,3.6935,3.6935,3.6935,3.6935,3.6935,3.6935,3.6509,3.6557,3.6568,3.6628,3.6648,3.6692,3.6711,3.6736,3.676,3.6813,3.6845,3.6861,3.6889,3.693,3.6966,3.6972,3.6987,3.6997,3.7002,3.695,3.6943,3.6937,3.6926,3.6999,3.7,3.7055,3.7056,3.7056]},{"header":{"parameterUnit":"m.s-1","parameterCategory":1,"la1":30.2991,"la2":30.254,"lo1":-89.0895,"lo2":-89.0444,"dy":0.0017,"dx":0.0017,"nx":28,"ny":28,"refTime":"2023-04-16T21:00:00:Z","depth":0,"parameterNumber":3,"parameterNumberName":"V-component_of_WINDS"},"data":[0,0,0,0,0,0,0,0,0,0,0,0,0,0,0,0,0,0,0,0,0,0,0,0,0,0,0,0,0,0,0,0,0,0,0,0,0,0,0,0,0,0,0,0,0,0,0,0,0,0,0,0,0,0,0,0,0,0,-5.8656,-5.8657,0,-5.876,-5.8761,-5.8762,-5.8755,-5.8754,-5.8752,-5.8751,-5.8854,-5.8858,-5.8862,0,0,0,0,0,0,0,0,0,0,0,0,0,-5.8449,-5.8452,-5.8655,-5.8657,-5.8658,-5.876,-5.8761,-5.8762,-5.8756,-5.8754,-5.8752,-5.875,-5.8853,-5.8857,-5.8862,0,0,0,0,0,0,0,0,0,0,0,0,0,-5.8544,-5.8454,-5.8655,-5.8667,-5.8669,-5.8759,-5.8761,-5.8763,-5.8756,-5.8754,-5.8751,-5.8749,-5.8851,-5.8857,-5.8863,-5.8947,0,0,-5.8882,-5.8885,0,0,0,0,0,0,0,0,-5.8539,-5.8552,-5.8664,-5.8666,-5.8669,-5.8742,-5.8726,-5.8824,-5.8757,-5.8723,-5.8751,-5.8748,-5.8818,-5.8827,-5.8852,-5.8952,-5.8956,-5.8883,-5.8886,-5.8889,-5.8891,0,0,0,0,0,0,0,-5.8532,-5.8547,-5.8697,-5.8666,-5.8669,-5.8666,-5.8677,-5.8744,-5.8782,-5.8726,-5.8725,-5.8738,-5.8819,-5.8846,-5.8854,-5.8958,-5.8883,-5.8888,-5.8892,-5.8894,-5.9135,-5.9137,0,0,0,0,0,0,-5.8523,-5.8542,-5.8693,-5.87,-5.8597,-5.8672,-5.8684,-5.8721,-5.8781,-5.8788,-5.874,-5.8737,-5.8836,-5.8847,-5.8857,-5.8962,-5.8889,-5.8895,-5.8899,-5.9132,-5.9135,-5.9138,0,0,0,0,0,0,-5.8519,-5.8537,-5.8689,-5.8621,-5.864,-5.8678,-5.8719,-5.8724,-5.8751,-5.8792,-5.8798,-5.876,-5.8835,-5.8849,-5.8926,-5.8965,-5.8898,-5.8903,-5.9129,-5.9133,-5.9137,-5.9169,0,0,0,0,0,0,-5.8513,-5.8535,-5.8568,-5.8622,-5.8644,-5.8756,-5.8722,-5.8728,-5.8762,-5.8759,-5.8813,-5.8819,-5.8834,-5.8916,-5.8932,-5.8972,-5.8908,-5.9126,-5.9131,-5.9136,-5.9165,-5.9174,-5.9182,0,0,0,0,0,-5.8505,-5.8572,-5.857,-5.8588,-5.8685,-5.8758,-5.8771,-5.8788,-5.8765,-5.8798,-5.8825,-5.8818,-5.8958,-5.8924,-5.8942,-5.8985,-5.9123,-5.9129,-5.9135,-5.9161,-5.9172,-5.9182,0,0,0,0,0,0,-5.852,-5.8579,-5.8577,-5.8663,-5.8706,-5.8757,-5.8799,-5.8798,-5.8848,-5.8843,-5.8861,-5.8873,-5.8951,-5.8975,-5.8936,-5.907,-5.9038,-5.9047,-5.9052,-5.9062,-5.9071,-5.9063,-5.8914,0,0,0,0,0,-5.8533,-5.8588,-5.8636,-5.8707,-5.8729,-5.8761,-5.8793,-5.8803,-5.8847,-5.8865,-5.8897,-5.894,-5.8995,-5.903,-5.9081,-5.9168,-5.9181,-5.9207,-5.9215,-5.9222,-5.923,-5.928,-5.9292,-5.9158,-5.9158,-5.9158,0,0,-5.856,-5.86,-5.8633,-5.8711,-5.8746,-5.8803,-5.8776,-5.8836,-5.8879,-5.8874,-5.8949,-5.8975,-5.9024,-5.9107,-5.9145,-5.913,-5.927,-5.9229,-5.9234,-5.9239,-5.9287,-5.93,-5.9311,-5.9162,-5.9161,-5.916,0,0,-5.864,-5.8675,-5.8739,-5.8775,-5.8828,-5.8849,-5.8865,-5.8917,-5.8934,-5.9011,-5.9009,-5.9059,-5.9151,-5.9187,-5.9217,-5.9313,-5.9308,-5.9329,-5.9373,-5.9421,-5.9432,-5.9441,-5.9477,-5.9489,-5.9337,-5.9337,-5.9337,0,-5.8667,-5.8754,-5.8771,-5.8834,-5.8869,-5.8869,-5.8934,-5.8967,-5.9034,-5.9058,-5.904,-5.9158,-5.9191,-5.9283,-5.9307,-5.9331,-5.9349,-5.9323,-5.9429,-5.9439,-5.9448,-5.9482,-5.9495,-5.9339,-5.9339,-5.9339,-5.9339,0,-5.8785,-5.8845,-5.889,-5.8958,-5.8997,-5.906,-5.9088,-5.9126,-5.9132,-5.9155,-5.9233,-5.9273,-5.9334,-5.9356,-5.9362,-5.945,-5.944,-5.9425,-5.9393,-5.9463,-5.9495,-5.9508,-5.9343,-5.9342,-5.9341,-5.9341,0,0,-5.8876,-5.8954,-5.897,-5.9002,-5.9062,-5.9108,-5.9172,-5.9233,-5.9266,-5.9312,-5.9366,-5.9446,-5.9434,-5.9468,-5.9478,-5.952,-5.9596,-5.9501,-5.9502,-5.9518,-5.9697,-5.9708,-5.9723,-5.9593,-5.9595,-5.9597,-5.9693,0,-5.8963,-5.9077,-5.9096,-5.9196,-5.9252,-5.9254,-5.9309,-5.9352,-5.9375,-5.9426,-5.9451,-5.9508,-5.9487,-5.9508,-5.955,-5.9577,-5.9632,-5.9571,-5.9643,-5.9646,-5.9632,-5.974,-5.9752,-5.984,-5.9706,-5.9708,-5.971,0,-5.9079,-5.9131,-5.9237,-5.9292,-5.9316,-5.9366,-5.9425,-5.9473,-5.9522,-5.9536,-5.9576,-5.9581,-5.9647,-5.9612,-5.9703,-5.9661,-5.9692,-5.9711,-5.9714,-5.9722,-5.9682,-5.9752,-5.9869,-5.9882,-5.9729,-5.9728,-5.9726,0,-5.9136,-5.9233,-5.931,-5.9336,-5.9401,-5.9437,-5.9465,-5.9512,-5.9548,-5.9599,-5.9623,-5.968,-5.9712,-5.9756,-5.9777,-5.9749,-5.9868,-5.9833,-5.9881,-5.9881,-5.9907,-5.9905,-6.0031,-5.9925,-5.9924,-5.9924,-5.9924,0,-5.9232,-5.9297,-5.9337,-5.9384,-5.9457,-5.9478,-5.955,-5.9578,-5.962,-5.9672,-5.9676,-5.9725,-5.9749,-5.9802,-5.9818,-5.9893,-5.9906,-5.9919,-5.9923,-5.992,-5.9919,-5.9941,-5.9936,-5.9928,-5.9927,-5.9926,-5.9926,0,-5.9308,-5.9337,-5.9422,-5.9477,-5.9493,-5.9545,-5.9592,-5.9638,-5.9662,-5.9728,-5.9745,-5.9782,-5.9844,-5.9869,-5.9945,-5.9956,-6.0042,-6.004,-6.0026,-6.0028,-6.0075,-6.007,-6.0221,-6.0242,-6.012,-6.0121,-6.0122,0,-5.9368,-5.9419,-5.9481,-5.9517,-5.9548,-5.9606,-5.9644,-5.9667,-5.9706,-5.9767,-5.9805,-5.9868,-5.992,-6.0019,-6.0052,-6.011,-6.0111,-6.016,-6.0119,-6.0115,-6.0113,-6.0111,-6.0117,-6.0167,-6.0168,-6.0169,-6.017,0,-5.9471,-5.9484,-5.9539,-5.9601,-5.9647,-5.9695,-5.9743,-5.9772,-5.9802,-5.9846,-5.9911,-5.9951,-6.003,-6.0092,-6.0153,-6.0181,-6.0182,-6.0183,-6.0197,-6.0195,-6.0185,-6.0193,-6.0048,-6.0179,-6.0178,-6.0177,-6.0177,-6.0177,-5.9542,-5.9588,-5.964,-5.9702,-5.9741,-5.9786,-5.9833,-5.9863,-5.9918,-5.9986,-5.9995,-6.0065,-6.0114,-6.0196,-6.0227,-6.0282,-6.0269,-6.0289,-6.0295,-6.03,-6.0304,-6.0176,-6.0292,-6.0292,-6.0292,-6.0292,-6.0292,0,-5.9647,-5.9681,-5.9738,-5.9806,-5.9855,-5.9852,-5.9905,-5.9946,-6.0008,-6.0054,-6.0106,-6.0182,-6.0243,-6.0281,-6.0343,-6.038,-6.0381,-6.0395,-6.0393,-6.04,-6.0311,-6.0293,-6.0393,-6.0393,-6.0393,-6.0393,-6.0393,-6.0393,-5.9708,-5.9786,-5.9805,-5.9903,-5.9936,-6.0007,-6.0037,-6.0079,-6.0116,-6.0201,-6.0253,-6.0278,-6.0322,-6.0387,-6.0443,-6.0453,-6.0476,-6.0491,-6.05,-6.0416,-6.0406,-6.0396,-6.0379,-6.0496,-6.0496,-6.0585,-6.0586,-6.0587]}]]